SCP
0 0 0 0 0 0 -0 -0 -0 -0 -0 -0 -0 -0 -0 -0 -0 0 0 0 0 -0 0 -0 0 0 -0 0 -0 -0 -0 -0 -0 0 0 0 0 0 0 0 -0 -0 -0 -0 0
0 0 0 0 0 0 0 -0 -0 -0 -0 -0 -0 -0 -0 -0 0 0 0 0 -0 0 0 -0 -0 -0 0 -0 -0 -0 -0 -0 -0 0 0 -0 0 0 0 0 -0 -0 -0 -0 -0
0 0 0 0 0 0 0 0 -0 -0 -0 -0 -0 -0 -0 0 0 0 -0 -0 -0 0 0 0 0 -0 -0 -0 -0 -0 -0 -0 -0 0 -0 -0 0 0 0 0 0 0 0 0 0
0 0 0 0 0 0 0 0 -0 -0 -0 -0 -0 -0 -0 0 -0 0 0 -0 -0 0 0 0 -0 -0 -0 -0 -0 -0 -0 -0 -0 0 0 -0 0 0 0 0 0 0 0 0 0
0 0 0 0 0 0 0 0 -0 -0 -0 -0 -0 -0 0 0 0 0 -0 -0 -0 0 -0 -0 -0 0 0 0 0 0 0 -0 0 0 0 0 0 0 0 0 0 0 0 0 0
0 0 0 0 0 0 0 -0 -0 -0 -0 -0 -0 -0 0 0 0 0 0 0 0 -0 0 0 -0 -0 0 0 0 0 0 0 0 0 0 0 0 0 0 0 0 0 0 0 0
0 0 0 0 0 -0 -0 0 -0 -0 -0 -0 0 0 0 0 0 0 0 0 -0 0 -0 0 0 -0 0 0 0 0 0 0 0 0 0 0 0 0 0 0 0 0 0 0 0
0 0 0 0 0 0 -0 -0 -0 -0 0 0 0 0 0 0 0 0 0 0 0 -0 0 0 0 0 0 0 0 0 0 0 0 0 0 0 0 0 0 0 0 0 1 1 1
0 0 0 0 0 0 -0 -0 -0 0 0 0 0 0 0 -0 0 0 0 0 0 0 0 0 0 0 0 0 0 0 0 0 0 0 0 0 0 0 0 0 0 1 1 1 1
0 0 0 0 0 0 -0 0 0 0 0 0 0 0 0 0 0 -0 0 0 0 0 0 0 0 0 0 0 0 0 0 0 0 0 0 0 0 0 0 0 1 1 1 1 1
0 0 0 0 0 0 0 0 0 0 0 0 0 0 0 0 0 0 0 0 0 0 0 0 0 0 0 0 0 0 0 0 0 0 0 0 0 0 0 0 1 1 1 1 1
0 0 0 0 0 0 0 0 0 0 0 0 0 0 0 0 0 0 -0 0 0 0 0 0 0 0 0 0 0 0 0 0 0 0 0 0 0 0 0 0 0 0 1 0 0
0 0 0 0 0 0 0 0 0 0 0 0 0 0 0 0 0 0 0 0 0 0 0 0 0 0 0 0 0 0 0 0 0 0 0 0 0 0 0 0 0 0 0 0 0
0 0 0 0 0 0 0 0 0 -0 0 0 0 0 -0 0 0 -0 0 0 0 0 0 0 0 0 0 0 0 0 0 0 0 0 0 0 0 0 0 0 0 0 0 0 0
0 0 0 0 0 0 0 0 -0 0 0 0 0 0 0 -0 0 0 0 0 0 0 0 0 0 0 0 0 0 0 0 0 0 0 0 0 0 0 0 0 0 0 0 0 0
0 0 0 0 0 0 0 0 0 0 0 0 0 -0 0 0 0 -0 -0 0 0 0 0 0 0 0 0 0 0 0 0 0 0 0 0 0 0 0 0 0 0 0 0 0 0
0 0 0 0 0 0 0 0 0 0 0 0 0 0 0 0 0 0 0 0 0 0 0 0 0 0 0 0 0 0 0 0 0 0 0 0 0 0 0 0 -0 0 0 0 0
0 0 0 0 0 0 0 0 0 0 0 0 0 0 0 0 0 0 0 0 0 0 0 0 0 0 0 0 0 0 0 0 0 0 0 0 0 0 0 0 0 0 0 0 0
0 0 0 0 0 0 0 0 0 0 0 0 0 0 0 0 0 0 0 0 0 0 0 0 0 0 0 0 0 0 0 0 0 0 0 0 0 0 0 0 0 0 0 0 0
0 0 0 0 0 0 0 0 0 0 0 0 0 0 0 0 0 0 0 0 0 0 0 0 0 0 0 0 0 0 0 0 0 0 0 0 0 0 0 0 0 0 0 0 0
0 0 0 0 0 0 0 0 0 0 0 0 0 0 0 0 0 0 0 0 0 0 0 0 0 0 0 0 0 0 0 0 0 0 0 0 0 0 0 0 0 0 0 0 0
0 0 0 0 0 0 0 0 0 0 0 0 0 0 0 0 0 0 0 0 0 0 0 0 0 0 0 0 0 0 0 0 0 0 0 0 0 0 0 0 0 0 0 0 0
0 0 0 0 0 0 0 0 0 0 0 0 0 0 0 0 0 0 0 0 0 0 0 0 0 0 0 0 0 0 0 0 0 0 0 0 0 0 0 0 0 0 0 0 0
0 0 0 0 0 0 0 0 0 0 0 0 0 0 0 0 0 0 0 0 0 0 0 0 0 0 0 0 0 0 0 0 0 0 0 0 0 0 0 0 0 0 0 0 0
0 0 0 0 0 0 0 0 0 0 0 0 0 0 0 0 0 0 0 0 0 0 0 0 0 0 0 0 0 0 0 0 0 0 0 0 0 0 0 0 0 0 0 0 0
0 0 0 0 0 0 0 0 0 0 0 0 0 0 0 0 0 0 0 0 0 0 0 0 0 0 0 0 0 0 0 0 0 0 0 0 0 0 0 0 0 0 0 0 0
0 0 0 0 0 0 0 0 0 0 0 0 0 0 0 0 0 0 0 0 0 0 0 0 0 0 0 0 0 0 0 0 0 0 0 0 0 0 0 0 0 0 0 0 0
Wind_Speed_500mb
4 3 4 6 7 7 8 9 9 8 8 9 10 11 10 9 13 3 5 12 1 0 4 7 4 4 4 5 7 5 2 5 8 12 14 23 12 6 10 19 9 13 13 17 32
4 4 6 8 8 8 9 10 9 7 9 12 13 15 17 20 14 11 11 9 7 10 12 11 7 5 2 4 2 1 2 7 8 16 19 36 22 24 13 13 9 16 23 32 33
5 5 7 9 9 9 9 9 7 6 10 13 15 17 21 13 18 12 12 13 11 9 14 18 12 10 6 2 3 4 3 2 8 16 40 33 32 18 30 19 30 41 37 41 40
6 7 9 9 8 9 9 8 4 6 10 13 16 19 23 8 9 8 12 10 9 13 19 17 16 8 5 4 2 5 1 2 12 16 33 34 29 22 21 16 22 32 40 44 36
7 9 9 8 8 9 9 7 1 5 10 13 16 20 22 12 15 15 11 8 10 14 17 13 19 7 7 4 10 2 7 9 13 21 22 25 15 13 12 14 33 43 45 40 30
9 9 8 8 8 8 8 6 1 5 9 12 15 20 14 11 15 11 11 13 12 13 14 14 11 10 8 5 5 7 15 17 12 17 11 20 12 6 8 16 34 38 36 29 28
7 7 8 8 7 8 8 6 3 4 8 12 15 20 8 7 12 11 14 16 14 16 12 10 10 11 5 4 8 10 11 16 16 8 8 15 7 5 8 19 30 29 28 31 28
5 6 7 6 7 7 7 6 5 4 7 10 14 15 3 8 9 11 10 13 10 15 12 6 8 10 6 5 8 7 8 13 7 3 9 10 30 5 15 24 26 25 23 26 31
5 5 5 5 5 5 6 7 5 4 6 9 10 13 6 9 10 7 6 9 6 9 10 7 6 9 5 6 5 11 6 9 7 6 8 10 17 16 23 27 28 26 26 24 30
3 4 3 4 4 4 4 6 4 4 4 5 6 4 9 13 9 6 1 5 2 4 4 6 10 5 5 2 7 6 8 7 9 5 11 22 33 20 30 31 33 30 27 26 27
2 3 4 4 5 9 1 6 2 2 1 2 6 8 6 18 3 3 1 2 3 13 5 11 8 11 8 11 13 14 7 3 5 6 6 7 18 22 35 34 31 28 28 27 31
2 4 6 8 15 19 17 12 10 1 3 7 11 16 15 10 4 9 7 3 8 7 1 6 13 6 12 12 12 7 4 6 4 5 8 8 10 10 28 29 28 29 30 33 32
4 5 9 16 14 16 21 18 13 9 1 3 8 10 3 1 2 6 6 9 11 9 6 8 9 8 2 7 6 4 3 2 8 10 2 8 3 6 15 19 24 29 35 34 38
7 5 13 12 13 15 18 15 14 11 5 5 5 4 9 4 4 2 6 4 6 13 11 11 4 2 3 5 2 2 2 7 10 8 14 9 6 4 5 24 30 37 41 42 39
13 5 14 13 12 17 11 10 10 6 5 1 5 3 12 8 7 4 5 3 7 8 6 5 12 4 2 4 1 4 6 4 3 4 5 6 8 5 1 16 28 35 42 43 41
17 5 16 13 13 11 6 7 7 3 2 3 4 6 10 4 3 6 6 14 8 9 14 5 0 1 2 4 5 4 4 6 5 2 5 5 7 4 3 7 13 32 40 42 36
22 4 19 10 6 4 3 6 3 2 5 3 2 5 8 6 4 4 5 6 2 5 3 3 3 4 2 6 6 7 9 6 2 1 4 4 6 6 8 11 15 29 36 30 19
22 5 19 16 8 3 4 6 2 2 6 5 5 5 11 9 4 4 6 7 5 5 5 6 5 1 5 4 4 7 3 3 8 7 11 2 4 3 3 2 5 16 20 15 11
20 5 8 21 16 3 2 2 5 7 4 9 2 4 4 5 6 6 1 8 4 6 7 9 5 1 9 4 6 5 1 4 5 1 6 3 5 11 10 8 7 12 15 11 8
20 6 5 15 25 10 5 5 5 7 8 3 2 1 6 5 10 10 12 3 5 1 2 8 4 1 5 5 19 3 13 3 2 6 8 5 7 7 14 19 10 14 14 10 11
13 7 3 22 19 6 4 6 7 11 7 4 2 3 5 6 5 6 9 3 0 5 6 6 1 3 5 5 2 5 4 8 2 3 5 10 7 4 7 13 18 19 16 10 11
4 3 2 24 6 3 5 7 4 9 6 10 4 3 4 5 6 5 7 2 5 4 5 3 5 4 4 3 9 4 1 3 5 5 1 5 14 4 7 9 6 17 11 7 10
13 2 2 22 6 4 3 4 6 6 6 3 6 1 2 6 6 4 5 4 4 5 8 11 4 3 4 5 4 3 5 7 8 1 12 10 11 5 4 8 9 8 6 9 14
7 1 4 8 8 8 7 2 4 6 5 4 2 4 5 5 9 7 5 3 4 9 15 9 6 6 5 4 1 8 7 6 5 6 15 22 35 27 14 18 15 10 9 11 16
4 2 3 3 5 5 2 5 2 5 3 4 3 3 9 7 5 6 5 5 6 11 6 3 5 6 6 8 8 14 17 15 16 19 13 26 25 34 24 16 15 11 11 17 22
2 4 4 4 2 4 1 3 5 3 3 4 5 8 4 9 11 16 13 8 6 5 5 2 5 4 6 1 6 14 21 20 20 13 20 25 28 9 4 9 11 13 17 22 24
6 6 3 2 2 4 5 6 7 2 4 4 6 3 5 9 12 5 14 12 14 14 10 7 10 6 7 3 12 15 12 8 6 9 8 10 8 6 10 17 16 19 21 25 22
Wind_Direction_500mb
226 226 206 189 179 171 160 150 123 91 50 23 14 17 14 359 342 10 117 148 18 253 148 168 158 322 65 59 39 90 85 92 143 172 131 159 139 162 144 142 149 183 160 171 180
234 218 190 175 172 169 161 144 118 75 32 14 8 6 359 354 78 98 133 145 134 112 102 96 152 194 105 73 45 11 201 170 158 158 157 164 158 141 163 159 125 140 162 177 183
228 208 181 174 172 171 162 144 119 53 22 11 7 2 356 22 92 72 123 133 119 77 50 52 60 138 87 46 65 140 249 120 158 176 154 159 153 161 155 173 166 170 168 180 179
205 190 175 175 173 174 164 151 111 33 15 10 7 1 6 66 92 77 118 101 66 51 44 50 50 103 111 56 73 221 278 19 133 157 153 161 147 149 188 156 170 169 173 178 180
185 170 168 176 178 181 171 167 109 15 8 8 5 1 20 75 79 94 83 61 39 37 34 42 36 84 66 105 136 21 83 81 113 130 121 141 139 152 186 173 171 173 177 181 180
158 159 170 178 183 186 185 193 262 356 0 2 2 357 25 84 67 58 45 27 33 54 46 42 35 48 86 72 63 45 107 116 77 103 102 144 129 147 209 176 165 168 173 179 190
150 163 168 171 187 195 199 219 272 334 348 350 354 1 58 79 37 52 41 35 61 53 50 37 37 27 16 84 58 105 103 102 45 58 84 140 149 193 171 170 165 174 176 185 196
148 160 162 171 191 196 203 232 267 310 331 336 346 356 25 43 59 75 57 52 74 40 44 38 24 66 63 91 40 73 96 162 20 84 147 214 224 188 174 177 171 174 173 177 178
139 154 165 173 179 189 207 229 246 277 308 325 340 355 42 65 63 40 60 37 72 26 19 23 60 64 59 113 117 39 93 117 106 56 173 217 243 200 183 184 174 173 173 175 171
156 167 170 157 156 180 221 215 224 258 292 325 316 357 61 6 2 7 54 359 349 8 95 59 59 78 67 190 91 75 114 88 134 67 202 216 247 186 188 187 181 176 174 180 177
187 174 150 141 98 66 25 146 145 104 275 177 294 294 329 350 10 59 165 332 55 69 61 23 95 80 66 87 112 120 111 101 182 176 276 234 271 216 188 190 187 184 184 182 189
97 148 143 111 93 79 94 92 80 73 329 233 258 281 308 332 23 67 76 79 53 92 112 96 96 91 102 86 100 105 98 36 279 353 319 351 17 150 193 201 202 194 193 200 206
53 145 134 111 96 100 73 64 54 33 23 283 241 267 294 67 26 41 45 92 76 93 83 112 115 146 91 73 59 50 39 296 303 345 68 321 151 175 197 206 205 208 210 216 219
15 149 134 116 94 102 60 55 32 14 60 289 223 228 198 185 5 73 80 90 73 106 91 84 136 176 58 76 347 289 258 283 287 294 315 349 300 194 214 219 222 217 217 224 227
13 162 138 106 103 75 47 38 8 344 131 106 185 211 179 167 140 76 84 73 121 117 214 106 170 162 58 26 254 11 6 6 358 154 212 30 274 103 225 227 225 219 219 225 231
17 179 159 111 94 65 54 356 336 30 143 66 158 151 142 105 116 114 100 84 96 75 50 78 280 9 90 106 52 334 249 66 88 161 192 20 315 138 275 291 226 214 219 222 233
14 138 175 142 107 96 282 322 50 166 330 76 143 164 160 144 110 47 62 51 121 138 82 44 8 330 191 228 164 14 352 328 222 348 340 18 256 340 296 254 235 209 211 219 223
8 29 190 194 171 68 44 64 170 280 274 337 15 106 183 148 77 84 112 139 78 95 127 197 212 343 6 14 348 48 355 312 311 310 319 215 233 56 222 312 256 239 212 183 189
360 359 182 202 190 172 78 77 229 210 311 328 309 141 142 138 122 126 139 169 162 190 186 174 234 14 41 60 328 130 260 65 114 118 263 296 235 248 210 202 172 148 154 156 195
353 129 165 189 177 175 92 227 245 229 316 316 259 215 161 138 162 190 180 144 147 360 281 166 217 71 97 125 54 282 129 228 105 288 295 240 271 287 218 223 193 182 179 184 211
346 157 84 160 156 146 178 227 269 281 241 246 276 138 115 133 134 153 163 108 351 80 92 126 119 125 239 23 294 154 190 66 64 304 283 301 304 184 262 283 248 211 192 204 223
340 113 69 172 101 60 161 195 295 290 277 260 221 167 143 135 110 129 152 52 347 146 88 44 109 253 352 347 289 342 19 178 223 203 188 303 285 166 279 302 233 186 197 231 254
338 220 82 185 167 188 219 245 258 319 304 287 215 132 87 116 112 122 115 19 59 93 150 176 52 309 186 169 135 171 121 106 95 82 214 265 268 160 234 225 201 204 247 268 283
332 312 74 147 116 145 153 112 307 306 240 311 151 104 113 91 35 139 128 32 77 102 122 114 129 197 249 295 284 258 199 206 233 241 284 254 289 289 278 238 219 238 267 293 295
359 96 105 107 64 105 131 142 163 337 357 5 152 234 157 130 121 151 149 142 78 138 77 102 189 206 261 245 234 266 268 251 236 256 251 292 285 290 306 245 233 255 269 293 296
146 163 112 100 64 156 5 174 166 277 264 21 57 356 193 159 187 192 162 197 183 143 109 58 155 188 265 320 241 275 279 261 253 257 256 277 282 311 274 211 232 261 276 287 293
156 140 124 26 98 173 162 167 181 228 204 246 330 264 231 257 257 272 169 158 164 161 149 153 151 174 277 329 310 270 236 213 240 215 247 271 324 236 226 235 252 273 282 278 285
Wind_Speed_850mb
4 3 4 6 7 7 8 9 9 8 8 9 10 11 10 9 13 3 5 12 1 0 4 7 4 4 4 5 7 5 2 5 8 12 14 23 12 6 10 19 9 13 13 17 32
4 4 6 8 8 8 9 10 9 7 9 12 13 15 17 20 14 11 11 9 7 10 12 11 7 5 2 4 2 1 2 7 8 16 19 36 22 24 13 13 9 16 23 32 33
5 5 7 9 9 9 9 9 7 6 10 13 15 17 21 13 18 12 12 13 11 9 14 18 12 10 6 2 3 4 3 2 8 16 40 33 32 18 30 19 30 41 37 41 40
6 7 9 9 8 9 9 8 4 6 10 13 16 19 23 8 9 8 12 10 9 13 19 17 16 8 5 4 2 5 1 2 12 16 33 34 29 22 21 16 22 32 40 44 36
7 9 9 8 8 9 9 7 1 5 10 13 16 20 22 12 15 15 11 8 10 14 17 13 19 7 7 4 10 2 7 9 13 21 22 25 15 13 12 14 33 43 45 40 30
9 9 8 8 8 8 8 6 1 5 9 12 15 20 14 11 15 11 11 13 12 13 14 14 11 10 8 5 5 7 15 17 12 17 11 20 12 6 8 16 34 38 36 29 28
7 7 8 8 7 8 8 6 3 4 8 12 15 20 8 7 12 11 14 16 14 16 12 10 10 11 5 4 8 10 11 16 16 8 8 15 7 5 8 19 30 29 28 31 28
5 6 7 6 7 7 7 6 5 4 7 10 14 15 3 8 9 11 10 13 10 15 12 6 8 10 6 5 8 7 8 13 7 3 9 10 30 5 15 24 26 25 23 26 31
5 5 5 5 5 5 6 7 5 4 6 9 10 13 6 9 10 7 6 9 6 9 10 7 6 9 5 6 5 11 6 9 7 6 8 10 17 16 23 27 28 26 26 24 30
3 4 3 4 4 4 4 6 4 4 4 5 6 4 9 13 9 6 1 5 2 4 4 6 10 5 5 2 7 6 8 7 9 5 11 22 33 20 30 31 33 30 27 26 27
2 3 4 4 5 9 1 6 2 2 1 2 6 8 6 18 3 3 1 2 3 13 5 11 8 11 8 11 13 14 7 3 5 6 6 7 18 22 35 34 31 28 28 27 31
2 4 6 8 15 19 17 12 10 1 3 7 11 16 15 10 4 9 7 3 8 7 1 6 13 6 12 12 12 7 4 6 4 5 8 8 10 10 28 29 28 29 30 33 32
4 5 9 16 14 16 21 18 13 9 1 3 8 10 3 1 2 6 6 9 11 9 6 8 9 8 2 7 6 4 3 2 8 10 2 8 3 6 15 19 24 29 35 34 38
7 5 13 12 13 15 18 15 14 11 5 5 5 4 9 4 4 2 6 4 6 13 11 11 4 2 3 5 2 2 2 7 10 8 14 9 6 4 5 24 30 37 41 42 39
13 5 14 13 12 17 11 10 10 6 5 1 5 3 12 8 7 4 5 3 7 8 6 5 12 4 2 4 1 4 6 4 3 4 5 6 8 5 1 16 28 35 42 43 41
17 5 16 13 13 11 6 7 7 3 2 3 4 6 10 4 3 6 6 14 8 9 14 5 0 1 2 4 5 4 4 6 5 2 5 5 7 4 3 7 13 32 40 42 36
22 4 19 10 6 4 3 6 3 2 5 3 2 5 8 6 4 4 5 6 2 5 3 3 3 4 2 6 6 7 9 6 2 1 4 4 6 6 8 11 15 29 36 30 19
22 5 19 16 8 3 4 6 2 2 6 5 5 5 11 9 4 4 6 7 5 5 5 6 5 1 5 4 4 7 3 3 8 7 11 2 4 3 3 2 5 16 20 15 11
20 5 8 21 16 3 2 2 5 7 4 9 2 4 4 5 6 6 1 8 4 6 7 9 5 1 9 4 6 5 1 4 5 1 6 3 5 11 10 8 7 12 15 11 8
20 6 5 15 25 10 5 5 5 7 8 3 2 1 6 5 10 10 12 3 5 1 2 8 4 1 5 5 19 3 13 3 2 6 8 5 7 7 14 19 10 14 14 10 11
13 7 3 22 19 6 4 6 7 11 7 4 2 3 5 6 5 6 9 3 0 5 6 6 1 3 5 5 2 5 4 8 2 3 5 10 7 4 7 13 18 19 16 10 11
4 3 2 24 6 3 5 7 4 9 6 10 4 3 4 5 6 5 7 2 5 4 5 3 5 4 4 3 9 4 1 3 5 5 1 5 14 4 7 9 6 17 11 7 10
13 2 2 22 6 4 3 4 6 6 6 3 6 1 2 6 6 4 5 4 4 5 8 11 4 3 4 5 4 3 5 7 8 1 12 10 11 5 4 8 9 8 6 9 14
7 1 4 8 8 8 7 2 4 6 5 4 2 4 5 5 9 7 5 3 4 9 15 9 6 6 5 4 1 8 7 6 5 6 15 22 35 27 14 18 15 10 9 11 16
4 2 3 3 5 5 2 5 2 5 3 4 3 3 9 7 5 6 5 5 6 11 6 3 5 6 6 8 8 14 17 15 16 19 13 26 25 34 24 16 15 11 11 17 22
2 4 4 4 2 4 1 3 5 3 3 4 5 8 4 9 11 16 13 8 6 5 5 2 5 4 6 1 6 14 21 20 20 13 20 25 28 9 4 9 11 13 17 22 24
6 6 3 2 2 4 5 6 7 2 4 4 6 3 5 9 12 5 14 12 14 14 10 7 10 6 7 3 12 15 12 8 6 9 8 10 8 6 10 17 16 19 21 25 22
Wind_Direction_850mb
226 226 206 189 179 171 160 150 123 91 50 23 14 17 14 359 342 10 117 148 18 253 148 168 158 322 65 59 39 90 85 92 143 172 131 159 139 162 144 142 149 183 160 171 180
234 218 190 175 172 169 161 144 118 75 32 14 8 6 359 354 78 98 133 145 134 112 102 96 152 194 105 73 45 11 201 170 158 158 157 164 158 141 163 159 125 140 162 177 183
228 208 181 174 172 171 162 144 119 53 22 11 7 2 356 22 92 72 123 133 119 77 50 52 60 138 87 46 65 140 249 120 158 176 154 159 153 161 155 173 166 170 168 180 179
205 190 175 175 173 174 164 151 111 33 15 10 7 1 6 66 92 77 118 101 66 51 44 50 50 103 111 56 73 221 278 19 133 157 153 161 147 149 188 156 170 169 173 178 180
185 170 168 176 178 181 171 167 109 15 8 8 5 1 20 75 79 94 83 61 39 37 34 42 36 84 66 105 136 21 83 81 113 130 121 141 139 152 186 173 171 173 177 181 180
158 159 170 178 183 186 185 193 262 356 0 2 2 357 25 84 67 58 45 27 33 54 46 42 35 48 86 72 63 45 107 116 77 103 102 144 129 147 209 176 165 168 173 179 190
150 163 168 171 187 195 199 219 272 334 348 350 354 1 58 79 37 52 41 35 61 53 50 37 37 27 16 84 58 105 103 102 45 58 84 140 149 193 171 170 165 174 176 185 196
148 160 162 171 191 196 203 232 267 310 331 336 346 356 25 43 59 75 57 52 74 40 44 38 24 66 63 91 40 73 96 162 20 84 147 214 224 188 174 177 171 174 173 177 178
139 154 165 173 179 189 207 229 246 277 308 325 340 355 42 65 63 40 60 37 72 26 19 23 60 64 59 113 117 39 93 117 106 56 173 217 243 200 183 184 174 173 173 175 171
156 167 170 157 156 180 221 215 224 258 292 325 316 357 61 6 2 7 54 359 349 8 95 59 59 78 67 190 91 75 114 88 134 67 202 216 247 186 188 187 181 176 174 180 177
187 174 150 141 98 66 25 146 145 104 275 177 294 294 329 350 10 59 165 332 55 69 61 23 95 80 66 87 112 120 111 101 182 176 276 234 271 216 188 190 187 184 184 182 189
97 148 143 111 93 79 94 92 80 73 329 233 258 281 308 332 23 67 76 79 53 92 112 96 96 91 102 86 100 105 98 36 279 353 319 351 17 150 193 201 202 194 193 200 206
53 145 134 111 96 100 73 64 54 33 23 283 241 267 294 67 26 41 45 92 76 93 83 112 115 146 91 73 59 50 39 296 303 345 68 321 151 175 197 206 205 208 210 216 219
15 149 134 116 94 102 60 55 32 14 60 289 223 228 198 185 5 73 80 90 73 106 91 84 136 176 58 76 347 289 258 283 287 294 315 349 300 194 214 219 222 217 217 224 227
13 162 138 106 103 75 47 38 8 344 131 106 185 211 179 167 140 76 84 73 121 117 214 106 170 162 58 26 254 11 6 6 358 154 212 30 274 103 225 227 225 219 219 225 231
17 179 159 111 94 65 54 356 336 30 143 66 158 151 142 105 116 114 100 84 96 75 50 78 280 9 90 106 52 334 249 66 88 161 192 20 315 138 275 291 226 214 219 222 233
14 138 175 142 107 96 282 322 50 166 330 76 143 164 160 144 110 47 62 51 121 138 82 44 8 330 191 228 164 14 352 328 222 348 340 18 256 340 296 254 235 209 211 219 223
8 29 190 194 171 68 44 64 170 280 274 337 15 106 183 148 77 84 112 139 78 95 127 197 212 343 6 14 348 48 355 312 311 310 319 215 233 56 222 312 256 239 212 183 189
360 359 182 202 190 172 78 77 229 210 311 328 309 141 142 138 122 126 139 169 162 190 186 174 234 14 41 60 328 130 260 65 114 118 263 296 235 248 210 202 172 148 154 156 195
353 129 165 189 177 175 92 227 245 229 316 316 259 215 161 138 162 190 180 144 147 360 281 166 217 71 97 125 54 282 129 228 105 288 295 240 271 287 218 223 193 182 179 184 211
346 157 84 160 156 146 178 227 269 281 241 246 276 138 115 133 134 153 163 108 351 80 92 126 119 125 239 23 294 154 190 66 64 304 283 301 304 184 262 283 248 211 192 204 223
340 113 69 172 101 60 161 195 295 290 277 260 221 167 143 135 110 129 152 52 347 146 88 44 109 253 352 347 289 342 19 178 223 203 188 303 285 166 279 302 233 186 197 231 254
338 220 82 185 167 188 219 245 258 319 304 287 215 132 87 116 112 122 115 19 59 93 150 176 52 309 186 169 135 171 121 106 95 82 214 265 268 160 234 225 201 204 247 268 283
332 312 74 147 116 145 153 112 307 306 240 311 151 104 113 91 35 139 128 32 77 102 122 114 129 197 249 295 284 258 199 206 233 241 284 254 289 289 278 238 219 238 267 293 295
359 96 105 107 64 105 131 142 163 337 357 5 152 234 157 130 121 151 149 142 78 138 77 102 189 206 261 245 234 266 268 251 236 256 251 292 285 290 306 245 233 255 269 293 296
146 163 112 100 64 156 5 174 166 277 264 21 57 356 193 159 187 192 162 197 183 143 109 58 155 188 265 320 241 275 279 261 253 257 256 277 282 311 274 211 232 261 276 287 293
156 140 124 26 98 173 162 167 181 228 204 246 330 264 231 257 257 272 169 158 164 161 149 153 151 174 277 329 310 270 236 213 240 215 247 271 324 236 226 235 252 273 282 278 285